[[{"header":{"parameterUnit":"m.s-1","parameterCategory":1,"la1":30.2991,"la2":30.254,"lo1":-89.0895,"lo2":-89.0444,"dy":0.0017,"dx":0.0017,"nx":28,"ny":28,"refTime":"2024-03-23T03:00:00:Z","depth":0,"parameterNumber":2,"parameterNumberName":"U-component_of_WINDS"},"data":[0,0,0,0,0,0,0,0,0,0,0,0,0,0,0,0,0,0,0,0,0,0,0,0,0,0,0,0,0,0,0,0,0,0,0,0,0,0,0,0,0,0,0,0,0,0,0,0,0,0,0,0,0,0,0,0,0,0,-0.0026,-0.0025,0,0.0058,0.0059,0.006,0.0088,0.0087,0.0087,0.0087,0.0175,0.0177,0.018,0,0,0,0,0,0,0,0,0,0,0,0,0,-0.0159,-0.0156,-0.0026,-0.0025,-0.0024,0.0058,0.0059,0.006,0.0088,0.0087,0.0087,0.0086,0.0174,0.0177,0.018,0,0,0,0,0,0,0,0,0,0,0,0,0,-0.0091,-0.0156,-0.0027,-0.0001,0.0003,0.0057,0.0059,0.006,0.0088,0.0087,0.0087,0.0086,0.0173,0.0177,0.0181,0.0216,0,0,0.0193,0.0195,0,0,0,0,0,0,0,0,-0.0095,-0.0086,-0.0005,-0.0002,0.0001,0.0062,0.0044,0.0113,0.0088,0.0055,0.0087,0.0086,0.0138,0.0144,0.0161,0.022,0.0224,0.0193,0.0196,0.0197,0.0199,0,0,0,0,0,0,0,-0.0099,-0.0089,0.0007,-0.0004,-0.0,0.0008,0.0017,0.0058,0.0099,0.0058,0.006,0.007,0.0139,0.0158,0.0164,0.0226,0.0193,0.0197,0.0199,0.0201,0.0322,0.0323,0,0,0,0,0,0,-0.0109,-0.0093,0.0004,0.001,-0.0049,0.0011,0.0021,0.0043,0.0098,0.0106,0.007,0.0071,0.0151,0.0159,0.0167,0.0215,0.0197,0.0201,0.0203,0.0321,0.0322,0.0323,0,0,0,0,0,0,-0.0112,-0.01,0.0001,-0.0041,-0.0028,0.0014,0.0038,0.0045,0.0063,0.0107,0.0115,0.0081,0.0151,0.0161,0.0205,0.0218,0.0203,0.0207,0.032,0.0321,0.0322,0.0309,0,0,0,0,0,0,-0.0116,-0.0102,-0.0089,-0.0041,-0.0026,0.0036,0.0039,0.0047,0.007,0.0071,0.0119,0.0127,0.0151,0.0198,0.0208,0.0223,0.021,0.0319,0.0321,0.0322,0.0308,0.0309,0.031,0,0,0,0,0,-0.0121,-0.0096,-0.0088,-0.0077,-0.0009,0.0036,0.0045,0.0072,0.007,0.0085,0.0114,0.0125,0.0215,0.0202,0.0214,0.023,0.0318,0.032,0.0322,0.0308,0.0309,0.031,0,0,0,0,0,0,-0.0144,-0.009,-0.008,-0.004,-0.0007,0.0041,0.0059,0.0072,0.0107,0.0107,0.014,0.0151,0.0192,0.0216,0.0201,0.027,0.0267,0.0272,0.0253,0.0254,0.0255,0.0249,0.0213,0,0,0,0,0,-0.0144,-0.0113,-0.0067,-0.0036,-0.002,0.0017,0.0038,0.0056,0.0092,0.0106,0.0138,0.0174,0.0211,0.0234,0.0269,0.0312,0.0324,0.0329,0.033,0.0331,0.0334,0.0361,0.0365,0.0329,0.0329,0.0329,0,0,-0.0145,-0.0111,-0.0094,-0.004,-0.0012,0.0022,0.0029,0.0063,0.0088,0.0112,0.0155,0.018,0.0222,0.0266,0.0286,0.0287,0.0347,0.0333,0.0333,0.0336,0.0364,0.0367,0.037,0.033,0.033,0.033,0,0,-0.0129,-0.0101,-0.0071,-0.0043,0.0,0.0025,0.0032,0.0079,0.0096,0.014,0.0159,0.0191,0.0252,0.0282,0.0305,0.0336,0.0349,0.0347,0.0353,0.0379,0.0382,0.0384,0.0397,0.0401,0.035,0.035,0.035,0,-0.0135,-0.0085,-0.0057,-0.0023,0.0001,0.0024,0.0056,0.0083,0.0135,0.0152,0.0152,0.0231,0.0261,0.0313,0.0321,0.0339,0.035,0.0341,0.0379,0.0382,0.0385,0.0398,0.0402,0.035,0.035,0.035,0.035,0,-0.0094,-0.0059,-0.004,0.001,0.0037,0.007,0.0105,0.0128,0.0145,0.017,0.0217,0.0254,0.0298,0.0312,0.0328,0.0368,0.0367,0.0372,0.0371,0.0387,0.04,0.0405,0.0349,0.0349,0.0349,0.035,0,0,-0.0092,-0.0024,-0.0018,0.0007,0.0057,0.0085,0.012,0.0164,0.0185,0.0221,0.0253,0.0306,0.0312,0.0338,0.0358,0.0381,0.0406,0.0384,0.0386,0.0388,0.0455,0.0452,0.0456,0.0415,0.0416,0.0417,0.0452,0,-0.0068,-0.0006,0.0022,0.0073,0.0106,0.0131,0.0162,0.0197,0.0222,0.0256,0.0285,0.0322,0.0326,0.0343,0.0367,0.0398,0.042,0.0396,0.0447,0.0448,0.0436,0.0463,0.0459,0.049,0.0457,0.0458,0.0459,0,-0.0034,0.0003,0.0057,0.0106,0.0122,0.0149,0.0193,0.0224,0.0266,0.0283,0.0314,0.0334,0.0374,0.037,0.0427,0.041,0.0433,0.0452,0.0454,0.046,0.0454,0.0471,0.05,0.0505,0.0466,0.0466,0.0465,0,-0.0036,0.0027,0.0069,0.0089,0.0146,0.0165,0.019,0.0232,0.0257,0.0297,0.0314,0.0357,0.0381,0.0416,0.0448,0.0441,0.0503,0.0501,0.052,0.0519,0.0531,0.053,0.0566,0.0545,0.0545,0.0544,0.0544,0,-0.0012,0.002,0.0069,0.0094,0.0133,0.0165,0.0203,0.023,0.0267,0.03,0.0324,0.0354,0.0394,0.043,0.0456,0.0501,0.0511,0.0528,0.0534,0.0526,0.0524,0.0542,0.0541,0.0546,0.0545,0.0545,0.0545,0,-0.0009,0.0025,0.0072,0.0123,0.0137,0.0163,0.0208,0.0235,0.0263,0.0304,0.0316,0.036,0.0404,0.0439,0.0497,0.0514,0.0562,0.0569,0.0548,0.0552,0.0569,0.0568,0.0618,0.0627,0.0599,0.0599,0.0599,0,0.0004,0.003,0.0085,0.0108,0.0133,0.017,0.0197,0.0232,0.0259,0.0311,0.0332,0.0378,0.0416,0.0487,0.0524,0.057,0.0579,0.0593,0.0585,0.0577,0.0581,0.0579,0.0583,0.0594,0.0594,0.0594,0.0594,0,0.0024,0.004,0.0077,0.0121,0.0153,0.0189,0.0226,0.0244,0.0286,0.0316,0.0362,0.0392,0.0452,0.0498,0.0548,0.0576,0.0593,0.0597,0.0604,0.0596,0.0583,0.0592,0.0551,0.0595,0.0595,0.0595,0.0595,0.0595,0.0033,0.0059,0.0102,0.0143,0.0175,0.021,0.0239,0.0271,0.0309,0.036,0.0379,0.0427,0.0471,0.054,0.0569,0.0608,0.0609,0.0619,0.0622,0.0624,0.0624,0.0577,0.0617,0.0617,0.0617,0.0617,0.0617,0,0.0056,0.0085,0.0123,0.0175,0.0209,0.0222,0.0265,0.0292,0.0334,0.0373,0.0412,0.0466,0.0512,0.0554,0.0603,0.0626,0.0636,0.0638,0.0637,0.0644,0.0619,0.0608,0.063,0.063,0.063,0.063,0.063,0.063,0.0071,0.0115,0.0137,0.0198,0.0229,0.0275,0.0299,0.0332,0.0364,0.0424,0.0462,0.0489,0.0532,0.0584,0.0628,0.0639,0.0657,0.0657,0.0671,0.0647,0.0645,0.0643,0.0634,0.0661,0.0661,0.0693,0.0694,0.0694]},{"header":{"parameterUnit":"m.s-1","parameterCategory":1,"la1":30.2991,"la2":30.254,"lo1":-89.0895,"lo2":-89.0444,"dy":0.0017,"dx":0.0017,"nx":28,"ny":28,"refTime":"2024-03-23T03:00:00:Z","depth":0,"parameterNumber":3,"parameterNumberName":"V-component_of_WINDS"},"data":[0,0,0,0,0,0,0,0,0,0,0,0,0,0,0,0,0,0,0,0,0,0,0,0,0,0,0,0,0,0,0,0,0,0,0,0,0,0,0,0,0,0,0,0,0,0,0,0,0,0,0,0,0,0,0,0,0,0,-6.3061,-6.3061,0,-6.3099,-6.3099,-6.3099,-6.3105,-6.3105,-6.3105,-6.3104,-6.3139,-6.314,-6.3141,0,0,0,0,0,0,0,0,0,0,0,0,0,-6.2992,-6.2993,-6.3061,-6.3061,-6.3062,-6.3099,-6.3099,-6.31,-6.3105,-6.3105,-6.3105,-6.3104,-6.3139,-6.314,-6.3142,0,0,0,0,0,0,0,0,0,0,0,0,0,-6.3025,-6.2994,-6.3061,-6.3069,-6.307,-6.3098,-6.3099,-6.31,-6.3105,-6.3105,-6.3104,-6.3104,-6.3138,-6.314,-6.3142,-6.3163,0,0,-6.3147,-6.3148,0,0,0,0,0,0,0,0,-6.3023,-6.3028,-6.3068,-6.3069,-6.307,-6.3097,-6.3088,-6.3121,-6.3106,-6.3092,-6.3104,-6.3104,-6.3125,-6.3128,-6.3136,-6.3165,-6.3166,-6.3148,-6.3149,-6.315,-6.315,0,0,0,0,0,0,0,-6.3021,-6.3026,-6.3076,-6.3068,-6.307,-6.3071,-6.3075,-6.3094,-6.3111,-6.3093,-6.3094,-6.3098,-6.3126,-6.3134,-6.3137,-6.3167,-6.3148,-6.3149,-6.315,-6.3151,-6.3216,-6.3217,0,0,0,0,0,0,-6.3017,-6.3024,-6.3075,-6.3077,-6.3045,-6.3072,-6.3077,-6.3089,-6.3111,-6.3114,-6.3099,-6.3098,-6.3131,-6.3135,-6.3138,-6.3166,-6.3149,-6.3151,-6.3152,-6.3216,-6.3216,-6.3217,0,0,0,0,0,0,-6.3016,-6.3022,-6.3073,-6.3051,-6.3057,-6.3074,-6.3087,-6.309,-6.3098,-6.3115,-6.3118,-6.3104,-6.3131,-6.3136,-6.3157,-6.3167,-6.3152,-6.3154,-6.3215,-6.3216,-6.3217,-6.322,0,0,0,0,0,0,-6.3014,-6.3021,-6.303,-6.3051,-6.3058,-6.3092,-6.3088,-6.3091,-6.3102,-6.3102,-6.3121,-6.3124,-6.3131,-6.3155,-6.3159,-6.3169,-6.3155,-6.3214,-6.3215,-6.3217,-6.3219,-6.3221,-6.3222,0,0,0,0,0,-6.3012,-6.3028,-6.303,-6.3036,-6.3069,-6.3093,-6.3097,-6.3106,-6.3103,-6.3111,-6.3122,-6.3123,-6.3165,-6.3157,-6.3162,-6.3173,-6.3214,-6.3215,-6.3216,-6.3218,-6.322,-6.3222,0,0,0,0,0,0,-6.3005,-6.303,-6.3033,-6.3057,-6.3073,-6.3094,-6.3104,-6.3108,-6.3124,-6.3123,-6.3133,-6.3138,-6.3159,-6.3168,-6.3158,-6.3195,-6.3189,-6.3192,-6.3188,-6.3191,-6.3192,-6.3189,-6.3157,0,0,0,0,0,-6.3007,-6.3024,-6.3045,-6.3064,-6.3072,-6.3087,-6.3097,-6.3104,-6.312,-6.3126,-6.3139,-6.3154,-6.3171,-6.3181,-6.3197,-6.3221,-6.3225,-6.323,-6.3232,-6.3233,-6.3235,-6.325,-6.3252,-6.3222,-6.3222,-6.3222,0,0,-6.3009,-6.3026,-6.3036,-6.3063,-6.3076,-6.3094,-6.3092,-6.3111,-6.3124,-6.3128,-6.3151,-6.3161,-6.3178,-6.3201,-6.3212,-6.3209,-6.3245,-6.3235,-6.3236,-6.3237,-6.3251,-6.3254,-6.3257,-6.3223,-6.3223,-6.3222,0,0,-6.3024,-6.3038,-6.3056,-6.307,-6.3091,-6.3101,-6.3105,-6.3126,-6.3134,-6.3157,-6.3161,-6.3177,-6.3205,-6.3218,-6.3228,-6.3251,-6.3252,-6.3256,-6.3264,-6.3278,-6.328,-6.3283,-6.3291,-6.3294,-6.3258,-6.3258,-6.3258,0,-6.3024,-6.3052,-6.3064,-6.3084,-6.3096,-6.3104,-6.3122,-6.3135,-6.3159,-6.3167,-6.3164,-6.3202,-6.3214,-6.3241,-6.3247,-6.3254,-6.326,-6.3253,-6.3279,-6.3282,-6.3284,-6.3292,-6.3295,-6.3258,-6.3258,-6.3258,-6.3258,0,-6.3052,-6.3072,-6.3084,-6.311,-6.3124,-6.3142,-6.3157,-6.3169,-6.3175,-6.3186,-6.321,-6.3225,-6.3245,-6.3252,-6.3257,-6.3281,-6.3279,-6.3277,-6.3271,-6.3287,-6.3295,-6.3298,-6.3258,-6.3258,-6.3258,-6.3258,0,0,-6.3061,-6.3096,-6.31,-6.3113,-6.3138,-6.3153,-6.3172,-6.3194,-6.3205,-6.3222,-6.3239,-6.3264,-6.3264,-6.3276,-6.3283,-6.3295,-6.3313,-6.3292,-6.3293,-6.3296,-6.3341,-6.3342,-6.3345,-6.3315,-6.3316,-6.3316,-6.334,0,-6.3079,-6.3115,-6.3128,-6.3158,-6.3177,-6.3186,-6.3203,-6.322,-6.3231,-6.3248,-6.326,-6.3278,-6.3276,-6.3283,-6.3296,-6.3308,-6.3322,-6.3307,-6.333,-6.3331,-6.3325,-6.3349,-6.3349,-6.3371,-6.3343,-6.3343,-6.3344,0,-6.3103,-6.3124,-6.3156,-6.3181,-6.3189,-6.3205,-6.3227,-6.3243,-6.3263,-6.327,-6.3285,-6.3292,-6.3312,-6.3306,-6.3335,-6.3324,-6.3335,-6.3342,-6.3343,-6.3345,-6.3338,-6.3352,-6.3378,-6.3381,-6.3349,-6.3348,-6.3348,0,-6.3108,-6.3143,-6.3167,-6.3178,-6.3207,-6.3218,-6.3231,-6.325,-6.3263,-6.3283,-6.3291,-6.3312,-6.3323,-6.3339,-6.3351,-6.3345,-6.3379,-6.3373,-6.3385,-6.3385,-6.3391,-6.339,-6.3419,-6.3398,-6.3398,-6.3398,-6.3398,0,-6.3126,-6.3145,-6.317,-6.3185,-6.3208,-6.3223,-6.3244,-6.3257,-6.3275,-6.3292,-6.3301,-6.3317,-6.3332,-6.335,-6.3359,-6.3382,-6.3387,-6.3393,-6.3395,-6.3392,-6.3391,-6.3399,-6.3397,-6.3399,-6.3399,-6.3399,-6.3398,0,-6.3133,-6.3151,-6.3178,-6.3205,-6.3213,-6.3228,-6.3251,-6.3266,-6.3278,-6.33,-6.3306,-6.3326,-6.3347,-6.3361,-6.3388,-6.3395,-6.342,-6.3422,-6.3414,-6.3415,-6.3426,-6.3425,-6.346,-6.3465,-6.3441,-6.3441,-6.3441,0,-6.3144,-6.3159,-6.3189,-6.3203,-6.3216,-6.3237,-6.3251,-6.3267,-6.3282,-6.3307,-6.3319,-6.3342,-6.3361,-6.3395,-6.3411,-6.3432,-6.3434,-6.3445,-6.3437,-6.3434,-6.3435,-6.3433,-6.3435,-6.3446,-6.3446,-6.3446,-6.3446,0,-6.316,-6.3169,-6.319,-6.3215,-6.3233,-6.3253,-6.3272,-6.3282,-6.3302,-6.3317,-6.3341,-6.3356,-6.3386,-6.3408,-6.3431,-6.3443,-6.3448,-6.3449,-6.3453,-6.345,-6.3445,-6.3448,-6.3417,-6.3448,-6.3448,-6.3448,-6.3447,-6.3447,-6.317,-6.3185,-6.3209,-6.3233,-6.325,-6.3269,-6.3285,-6.3301,-6.3322,-6.3348,-6.3356,-6.3381,-6.3402,-6.3434,-6.3447,-6.3466,-6.3464,-6.347,-6.3471,-6.3472,-6.3473,-6.3443,-6.347,-6.347,-6.347,-6.347,-6.347,0,-6.3187,-6.3204,-6.3226,-6.3255,-6.3274,-6.328,-6.3302,-6.3318,-6.334,-6.336,-6.338,-6.3407,-6.343,-6.3449,-6.3472,-6.3484,-6.3487,-6.3489,-6.3488,-6.3491,-6.3472,-6.3467,-6.3487,-6.3487,-6.3487,-6.3487,-6.3487,-6.3487,-6.3198,-6.3225,-6.3237,-6.3273,-6.3289,-6.3315,-6.3328,-6.3345,-6.3362,-6.3393,-6.3413,-6.3426,-6.3446,-6.3471,-6.3492,-6.3497,-6.3505,-6.3507,-6.3512,-6.3494,-6.3492,-6.349,-6.3485,-6.3509,-6.3509,-6.353,-6.353,-6.353]}]]